Temperature
10 9 8 9 9 10 10 11 10 11 10 9 9 8 8 8 8 8 8 7 7 7 6 6 5 5 5 5 5 5 5 5 5 5 5 5 5 5 5 5 5 5 6 6
9 8 8 9 9 10 10 9 10 10 10 9 8 8 8 8 7 8 7 7 7 6 6 6 5 5 5 5 5 5 5 5 5 5 5 5 5 5 5 5 5 5 5 5
9 8 9 9 8 9 9 8 8 8 8 8 7 7 8 8 8 8 7 7 7 6 6 5 5 4 4 4 4 4 4 4 4 4 4 4 4 4 4 4 4 4 4 5
8 8 8 8 8 8 8 7 7 7 6 6 8 6 7 7 7 6 6 7 6 6 5 5 4 4 4 4 4 4 4 4 4 4 4 4 4 4 4 4 4 4 4 4
7 7 7 7 6 6 6 6 6 6 6 5 7 6 6 7 6 6 5 6 5 5 5 4 4 4 3 3 3 3 3 3 3 3 4 3 3 3 3 3 3 3 3 3
6 6 6 6 6 6 6 6 6 6 5 5 6 6 6 6 6 6 5 5 5 4 4 4 3 3 3 3 3 3 3 3 3 3 3 3 3 3 3 3 3 3 3 3
6 5 5 5 5 5 5 4 5 5 5 5 7 6 5 6 6 5 5 5 4 4 3 3 2 2 2 2 2 2 2 2 2 2 2 2 3 3 2 2 2 2 2 2
6 5 4 4 4 4 4 5 4 5 6 6 5 5 5 5 5 5 4 4 4 3 3 2 2 2 2 2 2 2 2 2 2 2 2 2 2 2 2 2 2 2 2 2
5 5 4 4 4 4 4 4 4 4 4 4 5 6 5 4 3 3 3 3 3 3 2 2 2 1 1 1 1 1 1 1 1 1 1 1 1 1 1 1 1 1 1 1
4 3 3 3 3 3 3 3 3 3 4 4 5 6 4 3 3 2 2 2 2 2 2 1 1 1 1 1 0 1 1 1 1 1 0 0 0 1 1 1 1 1 1 1
3 2 2 2 1 2 2 2 3 3 3 3 4 4 4 3 2 2 1 2 1 1 1 1 0 0 0 0 -0 -0 -0 -0 -0 -0 -0 -0 -0 -0 -0 -0 0 0 0 0
2 2 2 2 1 2 2 2 2 2 2 2 2 2 2 1 1 1 1 1 1 1 0 -0 -0 -0 -0 -0 -0 -1 -1 -1 -1 -1 -1 -1 -1 -1 -1 -1 -0 -0 -0 -0
1 1 1 2 1 0 0 1 1 1 1 1 2 2 1 1 1 1 1 1 0 0 -0 -1 -1 -1 -1 -1 -1 -1 -1 -1 -1 -2 -2 -2 -2 -1 -1 -1 -1 -1 -1 -1
1 0 1 2 2 1 -0 -0 -0 -0 -0 1 1 1 1 1 0 -0 0 0 -0 -1 -1 -1 -2 -2 -2 -2 -2 -2 -2 -2 -2 -2 -2 -2 -2 -2 -2 -2 -2 -2 -2 -2
-0 -0 0 0 1 1 -0 -1 -1 -1 -1 -0 0 0 1 0 -0 -0 -0 -0 -1 -1 -2 -2 -2 -2 -2 -2 -2 -3 -3 -3 -3 -3 -3 -3 -3 -3 -3 -3 -3 -2 -2 -2
-1 -1 -0 -0 0 -0 -1 -1 -1 -2 -2 -1 -1 -1 -0 0 0 -0 -1 -1 -1 -2 -2 -2 -3 -3 -3 -3 -3 -3 -3 -3 -3 -3 -3 -3 -3 -3 -3 -3 -3 -3 -3 -3
-2 -2 -1 -0 -0 -1 -2 -1 -2 -2 -2 -2 -2 -1 -1 -2 -2 -2 -1 -2 -2 -2 -3 -3 -3 -3 -3 -3 -3 -3 -4 -4 -4 -4 -4 -4 -4 -4 -4 -4 -4 -4 -4 -4
-3 -2 -1 -1 -1 -2 -0 -2 -2 -2 -3 -3 -2 -2 -2 -2 -2 -2 -2 -2 -3 -3 -3 -3 -3 -4 -4 -4 -4 -4 -4 -4 -4 -5 -5 -5 -5 -5 -5 -5 -5 -5 -5 -5
-3 -2 -2 -1 -2 -1 -1 -2 -3 -3 -3 -3 -3 -3 -3 -3 -3 -2 -2 -3 -3 -3 -3 -4 -4 -4 -4 -4 -4 -4 -4 -5 -5 -5 -5 -5 -5 -5 -5 -5 -5 -5 -5 -5
-4 -3 -3 -2 -2 -2 -1 -3 -3 -3 -3 -3 -3 -4 -4 -4 -4 -4 -3 -3 -4 -4 -4 -4 -4 -4 -4 -4 -5 -5 -5 -5 -5 -6 -6 -6 -6 -6 -6 -6 -6 -6 -6 -6
-4 -4 -4 -3 -3 -3 -3 -4 -3 -3 -3 -3 -3 -4 -4 -5 -4 -4 -4 -4 -4 -4 -4 -5 -5 -5 -5 -5 -5 -6 -6 -6 -6 -6 -6 -6 -6 -7 -7 -7 -7 -7 -7 -7
-4 -4 -4 -4 -3 -3 -4 -5 -4 -4 -3 -3 -4 -4 -4 -5 -5 -5 -5 -5 -5 -5 -5 -5 -5 -5 -6 -6 -6 -6 -6 -6 -7 -7 -7 -7 -7 -7 -7 -7 -7 -7 -7 -7
-4 -4 -4 -4 -3 -3 -4 -4 -4 -4 -4 -4 -5 -5 -5 -6 -6 -6 -6 -6 -5 -6 -6 -6 -6 -6 -6 -6 -7 -7 -7 -7 -7 -7 -7 -7 -7 -7 -8 -8 -8 -8 -8 -8
-4 -5 -4 -5 -5 -4 -4 -4 -4 -4 -5 -5 -5 -5 -6 -6 -6 -6 -6 -6 -6 -6 -6 -6 -7 -7 -7 -7 -7 -7 -7 -8 -8 -8 -8 -8 -8 -8 -8 -8 -8 -9 -9 -9
-4 -6 -6 -6 -6 -5 -4 -4 -4 -5 -5 -5 -5 -6 -6 -6 -6 -6 -7 -7 -7 -7 -7 -7 -7 -7 -7 -7 -7 -7 -8 -8 -8 -8 -8 -8 -9 -9 -9 -9 -9 -9 -9 -9
-6 -6 -6 -5 -5 -6 -5 -5 -5 -5 -6 -6 -6 -6 -6 -6 -7 -7 -7 -7 -7 -7 -7 -7 -8 -8 -8 -8 -8 -8 -8 -8 -9 -9 -9 -9 -9 -9 -9 -9 -9 -9 -9 -10
Wind_Speed
3 2 4 4 6 6 6 7 8 6 2 5 8 9 7 6 5 5 5 5 5 5 5 5 4 4 3 3 3 3 3 3 3 2 2 1 1 0 1 1 1 0 0 0
3 5 4 3 4 6 8 9 8 4 1 4 7 10 8 7 7 6 6 5 5 4 4 5 5 4 3 3 3 3 3 3 3 2 2 1 1 1 0 1 1 0 0 1
6 1 2 4 5 6 7 7 7 5 5 5 5 7 7 5 5 5 5 5 5 5 4 4 4 4 3 3 3 3 3 3 3 2 2 2 1 1 0 0 0 1 1 1
3 2 2 3 5 5 7 3 6 6 5 4 4 5 6 6 5 6 5 5 4 2 3 4 4 4 3 3 2 2 2 3 3 3 3 3 2 2 2 1 1 1 1 1
2 0 2 4 4 4 3 3 5 6 5 5 5 5 5 4 5 6 5 4 2 2 2 3 4 4 3 3 2 2 2 2 2 3 3 3 2 2 1 1 1 1 1 1
3 1 1 2 2 2 3 3 4 4 3 6 9 7 5 3 4 4 4 4 3 2 1 2 2 3 2 2 2 2 2 2 2 2 3 3 3 2 2 2 2 1 1 1
3 3 1 1 2 1 2 0 1 2 4 6 3 5 5 1 2 3 4 3 3 3 2 2 2 2 2 2 2 2 2 2 2 2 2 3 3 3 3 3 2 2 1 1
3 3 3 1 1 2 3 3 3 4 4 3 1 5 3 3 3 4 3 3 3 3 2 2 1 1 1 2 2 2 2 2 2 3 3 3 2 2 2 2 2 2 2 3
3 2 2 1 1 1 2 4 2 2 4 4 5 3 1 2 3 3 4 3 3 2 2 2 2 1 1 1 2 2 2 2 2 3 3 3 3 2 2 2 2 2 2 2
2 3 1 1 0 2 2 2 1 2 3 5 5 5 2 1 0 2 3 2 2 3 3 2 2 2 1 0 0 1 2 2 2 2 2 3 3 3 3 2 2 2 2 2
2 2 2 2 4 4 3 2 3 3 3 3 4 3 2 2 3 2 1 2 2 2 2 2 2 2 1 1 0 0 1 1 1 2 2 2 3 2 2 2 2 2 2 2
1 2 4 3 1 2 1 3 4 3 4 4 3 4 2 3 3 2 1 2 2 2 2 2 2 2 2 1 1 1 0 1 1 1 1 2 2 2 2 2 2 2 2 3
0 1 2 2 0 1 2 2 2 2 1 4 5 5 1 3 3 2 1 2 2 2 2 2 2 2 2 2 2 2 1 1 1 0 1 1 1 2 2 3 3 2 3 3
1 3 5 5 3 1 3 3 3 4 4 6 7 8 6 4 4 3 3 3 2 2 2 2 2 2 2 2 2 2 2 2 1 1 1 1 1 2 2 2 2 2 2 3
1 4 5 7 5 3 4 4 5 8 8 7 7 8 9 6 4 4 4 3 2 2 2 2 2 3 2 2 2 3 3 2 2 1 1 2 2 1 1 2 2 2 2 3
1 4 4 6 5 4 6 6 8 9 8 9 9 11 9 6 4 4 3 2 3 3 3 3 3 3 2 2 2 2 2 2 2 1 2 2 2 2 2 2 2 2 2 3
2 3 3 5 3 4 7 7 8 6 5 6 9 9 7 5 5 5 3 3 3 4 4 4 4 4 3 2 2 2 2 2 2 2 2 2 2 2 2 2 2 2 3 3
3 3 3 3 2 6 5 0 3 5 5 5 5 5 5 5 5 4 3 3 4 5 4 4 3 3 2 1 1 1 2 2 2 2 2 2 2 2 2 3 3 3 3 3
3 3 3 2 4 7 3 2 1 4 4 3 6 7 6 6 5 4 3 3 3 4 3 3 3 2 1 1 1 1 2 2 2 2 3 3 2 3 3 3 3 3 3 3
2 0 2 3 4 5 3 2 2 1 4 3 3 5 5 4 3 4 5 5 4 4 3 3 2 1 1 1 1 1 2 2 2 3 3 3 3 3 3 3 3 3 3 3
1 2 4 5 5 5 2 1 2 2 5 5 3 3 3 3 5 5 6 5 4 3 3 2 1 1 1 1 1 1 2 2 3 3 3 3 3 3 3 3 3 3 3 4
4 3 4 3 4 6 1 3 2 4 4 4 4 4 4 5 6 5 5 5 5 4 3 2 1 1 1 1 0 1 2 3 3 3 3 3 3 3 3 3 3 3 3 4
5 5 4 5 5 2 3 3 2 1 3 4 4 5 5 6 6 6 5 5 4 4 4 2 1 2 2 1 1 2 3 3 3 3 3 3 4 4 3 3 3 3 3 3
3 1 2 4 5 4 3 2 3 3 4 5 5 5 5 6 7 6 5 5 4 4 3 2 1 2 2 2 2 2 3 3 3 3 3 3 4 4 4 3 3 3 3 3
3 1 2 5 5 5 4 2 3 4 5 5 5 4 5 5 6 6 5 5 4 4 3 2 2 2 3 2 2 3 3 2 3 3 3 3 3 4 4 4 3 4 3 4
2 3 4 6 4 4 5 3 4 5 6 5 5 6 5 5 6 5 5 4 4 4 3 2 2 2 3 2 2 3 3 2 2 3 3 3 3 3 3 4 5 6 6 8
Wind_Direction
186 214 218 225 230 254 279 269 267 267 203 231 238 248 243 223 214 212 206 199 197 197 171 153 154 150 154 151 161 168 162 162 144 154 157 162 187 260 353 23 25 332 202 189
213 228 244 262 270 261 267 272 275 281 207 246 257 260 250 224 212 207 207 204 203 183 162 157 156 159 172 172 178 180 170 172 164 171 169 176 172 186 198 15 6 277 226 251
232 240 257 250 260 258 256 259 276 289 304 252 267 271 226 211 198 197 204 202 192 186 175 167 164 170 174 184 190 197 181 176 172 161 145 135 120 116 145 226 245 303 266 239
254 259 271 248 253 257 252 285 292 287 289 262 219 273 240 199 203 205 208 201 185 173 159 166 170 174 182 189 182 186 179 176 173 168 165 166 179 192 213 208 204 230 255 261
267 340 263 251 261 271 271 306 280 265 258 274 237 240 265 189 220 215 196 170 161 150 154 167 174 182 182 166 164 175 162 165 167 170 183 186 199 201 185 177 175 198 212 228
264 319 332 304 303 287 286 280 264 244 239 254 226 212 265 212 210 182 158 137 132 115 119 139 159 158 155 142 146 161 166 179 171 179 202 202 201 203 191 193 196 213 227 213
229 214 200 318 292 279 286 321 307 258 225 240 191 205 245 164 103 127 144 133 122 122 122 133 132 144 155 155 163 171 175 193 189 191 215 221 207 197 199 201 205 218 241 249
264 249 178 186 229 236 232 217 201 234 257 278 223 229 242 103 81 74 84 90 88 102 114 120 135 141 149 170 179 191 198 206 199 211 224 223 218 215 220 215 220 226 237 241
298 277 70 69 7 289 230 226 240 253 273 265 241 225 253 91 80 68 60 60 78 81 86 85 84 102 121 167 198 204 208 217 209 213 218 224 225 223 227 235 230 235 240 249
313 280 216 122 242 261 292 291 188 211 253 261 256 231 237 182 145 63 51 31 26 41 45 55 56 48 52 56 240 229 215 220 220 214 216 232 237 237 230 232 236 243 248 252
319 251 242 185 198 203 188 230 224 229 237 242 267 265 1 144 146 135 44 17 14 18 20 24 21 24 34 31 95 202 226 226 223 220 226 226 236 244 239 245 248 250 258 255
318 270 260 227 121 9 220 219 202 207 245 236 254 269 355 56 73 62 17 354 358 12 4 357 0 10 14 6 12 352 278 244 242 232 219 226 235 243 249 255 263 262 262 262
278 209 286 270 298 333 273 259 231 218 259 240 240 257 334 40 27 9 313 301 326 343 347 346 353 354 351 359 356 346 343 331 326 302 232 240 242 252 260 262 266 261 257 262
318 227 221 243 270 210 240 240 212 195 226 246 238 256 284 317 320 318 312 306 314 315 322 330 334 330 341 356 353 344 344 339 332 331 289 270 261 262 274 274 264 268 270 269
241 252 249 261 269 255 252 249 216 213 227 238 259 263 277 290 296 302 310 311 318 315 315 316 317 315 325 338 341 341 339 341 340 338 308 290 300 310 301 294 288 288 283 281
228 254 274 267 248 252 273 263 244 239 241 248 269 278 284 295 312 313 304 304 307 307 306 313 315 314 312 311 316 325 328 334 349 340 309 314 327 328 318 305 302 301 304 303
228 233 262 270 265 297 276 248 226 226 220 219 246 264 294 315 320 312 304 304 302 306 311 308 301 298 294 289 288 295 318 340 348 337 329 328 326 325 317 310 313 307 310 313
214 237 244 277 315 253 243 282 200 214 237 237 261 286 307 308 310 315 316 317 318 313 303 295 294 299 301 305 322 354 356 348 344 340 331 326 322 313 311 306 301 301 307 305
220 211 237 248 254 263 268 286 219 218 262 260 263 284 307 322 322 313 330 331 306 304 302 292 287 291 316 339 1 12 353 350 343 334 332 328 320 307 306 303 305 308 310 307
353 158 227 244 253 254 266 307 329 126 275 304 288 292 315 343 312 297 345 341 332 332 327 320 319 335 340 340 23 16 338 332 320 321 322 321 318 306 300 300 305 305 303 296
191 226 228 240 249 261 278 307 61 135 273 328 332 306 305 276 268 297 326 333 335 331 325 323 325 330 316 332 32 328 314 300 308 318 318 316 312 306 298 297 299 304 303 304
188 198 216 222 237 260 156 107 178 247 316 333 328 317 302 290 300 313 321 325 333 333 330 330 337 326 329 329 290 299 298 306 318 316 312 312 311 308 308 305 302 300 301 301
204 202 206 208 225 255 167 189 228 322 306 311 315 318 313 304 302 309 316 321 326 324 326 339 349 332 331 328 307 284 298 311 313 314 312 313 314 313 310 305 301 301 296 291
237 224 238 261 268 281 265 269 303 307 294 303 310 313 310 298 300 305 310 315 318 321 327 338 345 326 317 326 334 301 302 311 312 309 313 316 317 315 314 305 295 295 293 290
254 194 248 259 282 308 291 293 311 318 313 308 308 303 294 291 294 295 301 306 308 316 321 324 313 300 301 317 323 313 306 306 309 307 309 313 311 308 307 303 293 287 275 277
232 223 234 257 270 264 275 292 315 310 306 305 304 305 302 292 292 298 301 305 308 312 315 313 306 302 302 310 309 309 304 295 295 304 307 307 308 306 305 306 309 303 295 295
Height
1481 1484 1485 1484 1483 1482 1481 1480 1480 1478 1479 1481 1481 1481 1479 1479 1479 1480 1481 1482 1483 1484 1485 1486 1487 1488 1489 1490 1491 1491 1492 1494 1495 1496 1497 1499 1500 1502 1504 1505 1506 1508 1509 1510
1482 1484 1482 1482 1482 1481 1481 1481 1480 1478 1478 1480 1479 1478 1475 1475 1475 1476 1477 1478 1480 1481 1482 1483 1484 1485 1486 1487 1488 1489 1490 1491 1492 1493 1494 1496 1498 1499 1500 1502 1503 1504 1506 1507
1481 1482 1481 1482 1482 1482 1481 1483 1482 1483 1481 1478 1481 1478 1472 1470 1471 1473 1474 1475 1476 1478 1479 1480 1481 1482 1483 1484 1485 1486 1487 1488 1489 1490 1492 1493 1495 1496 1497 1498 1499 1500 1502 1503
1480 1481 1481 1482 1482 1482 1482 1483 1483 1484 1487 1485 1480 1484 1470 1468 1469 1470 1471 1472 1473 1475 1476 1477 1478 1479 1480 1481 1482 1483 1484 1485 1486 1487 1488 1489 1490 1491 1493 1494 1495 1497 1498 1500
1481 1481 1482 1483 1483 1483 1483 1483 1483 1484 1485 1487 1480 1485 1473 1466 1467 1467 1467 1469 1471 1472 1474 1474 1475 1476 1477 1478 1479 1480 1481 1482 1483 1484 1485 1486 1487 1489 1490 1491 1492 1493 1495 1496
1482 1482 1483 1483 1483 1484 1483 1483 1482 1483 1486 1489 1476 1480 1472 1466 1463 1463 1465 1467 1469 1470 1472 1473 1473 1474 1475 1475 1476 1477 1478 1478 1479 1480 1481 1483 1484 1485 1486 1487 1488 1489 1490 1491
1482 1483 1483 1484 1484 1485 1485 1488 1489 1487 1487 1479 1468 1474 1471 1462 1461 1461 1463 1466 1467 1469 1470 1471 1471 1472 1472 1472 1473 1474 1474 1475 1476 1477 1478 1479 1480 1481 1482 1483 1484 1485 1486 1487
1481 1482 1483 1484 1485 1487 1485 1486 1490 1488 1479 1472 1472 1474 1467 1463 1462 1462 1463 1465 1467 1468 1469 1470 1470 1470 1470 1470 1470 1471 1471 1471 1472 1473 1474 1475 1476 1478 1479 1480 1481 1481 1482 1483
1483 1483 1484 1484 1484 1485 1485 1486 1485 1488 1484 1484 1472 1465 1465 1463 1464 1464 1465 1465 1466 1467 1468 1469 1469 1469 1469 1468 1468 1468 1468 1468 1469 1470 1471 1472 1473 1474 1475 1476 1476 1477 1478 1479
1485 1488 1484 1486 1486 1486 1486 1485 1488 1489 1487 1480 1468 1464 1467 1467 1466 1466 1467 1467 1467 1468 1468 1468 1468 1467 1467 1467 1466 1466 1466 1465 1465 1466 1467 1468 1469 1470 1471 1471 1472 1473 1473 1474
1487 1490 1487 1487 1488 1485 1487 1488 1486 1485 1483 1483 1478 1473 1466 1465 1465 1466 1467 1467 1467 1467 1467 1467 1467 1466 1465 1464 1464 1463 1463 1462 1462 1462 1463 1464 1464 1465 1466 1466 1467 1468 1469 1469
1488 1489 1488 1484 1484 1484 1484 1483 1484 1487 1484 1482 1481 1480 1468 1466 1465 1466 1467 1467 1467 1467 1466 1466 1465 1464 1463 1462 1461 1461 1460 1460 1460 1459 1460 1460 1460 1461 1461 1462 1462 1463 1463 1464
1489 1491 1491 1485 1488 1489 1487 1485 1485 1486 1486 1484 1481 1479 1468 1467 1466 1467 1467 1467 1466 1465 1465 1464 1463 1462 1461 1460 1459 1458 1458 1457 1457 1457 1457 1457 1457 1457 1457 1457 1458 1458 1458 1458
1488 1490 1490 1486 1481 1484 1487 1487 1486 1487 1488 1482 1476 1473 1468 1468 1467 1466 1466 1465 1464 1464 1463 1462 1461 1460 1459 1458 1457 1456 1455 1455 1454 1454 1453 1453 1453 1453 1453 1453 1453 1453 1453 1453
1489 1489 1485 1482 1480 1481 1483 1484 1485 1486 1483 1481 1473 1471 1467 1466 1466 1465 1464 1463 1462 1462 1461 1460 1459 1458 1457 1455 1454 1453 1452 1452 1451 1451 1450 1450 1450 1450 1450 1449 1449 1449 1449 1448
1488 1489 1485 1482 1479 1479 1480 1480 1481 1481 1481 1478 1474 1471 1465 1464 1464 1463 1462 1461 1460 1460 1459 1458 1457 1455 1454 1453 1452 1451 1450 1449 1449 1448 1448 1447 1446 1446 1446 1446 1445 1445 1443 1443
1488 1488 1486 1480 1478 1479 1480 1475 1475 1476 1474 1475 1473 1468 1463 1463 1462 1461 1460 1459 1458 1457 1456 1455 1454 1453 1452 1451 1450 1448 1447 1447 1446 1446 1445 1444 1444 1443 1442 1442 1441 1440 1439 1439
1487 1487 1485 1482 1482 1485 1472 1468 1468 1469 1470 1469 1466 1464 1463 1462 1461 1459 1459 1457 1456 1455 1454 1452 1451 1450 1449 1448 1447 1446 1445 1444 1443 1443 1442 1441 1441 1440 1439 1438 1437 1436 1435 1434
1482 1484 1483 1482 1481 1474 1468 1468 1468 1469 1468 1465 1464 1462 1461 1460 1458 1457 1456 1455 1454 1453 1451 1450 1449 1448 1446 1445 1444 1444 1442 1442 1441 1440 1439 1438 1438 1437 1436 1435 1433 1432 1431 1430
1483 1483 1485 1481 1479 1476 1469 1468 1465 1468 1468 1462 1461 1461 1461 1460 1460 1456 1454 1453 1452 1450 1449 1447 1446 1445 1444 1443 1442 1441 1440 1439 1438 1438 1437 1436 1435 1434 1433 1432 1430 1429 1428 1427
1487 1486 1485 1482 1479 1473 1469 1467 1466 1472 1468 1462 1461 1460 1460 1459 1458 1455 1452 1451 1449 1447 1446 1445 1444 1443 1442 1441 1440 1439 1437 1437 1436 1435 1434 1433 1432 1431 1430 1429 1428 1426 1425 1424
1482 1484 1484 1480 1479 1475 1468 1468 1470 1468 1464 1462 1460 1459 1458 1456 1454 1452 1450 1448 1446 1445 1443 1442 1441 1440 1439 1438 1437 1436 1435 1434 1434 1433 1432 1431 1430 1429 1428 1426 1425 1424 1422 1420
1475 1475 1474 1475 1472 1467 1465 1464 1464 1463 1462 1461 1459 1457 1456 1454 1451 1450 1448 1446 1444 1443 1441 1440 1439 1437 1436 1436 1435 1434 1433 1432 1431 1430 1429 1428 1427 1426 1425 1424 1422 1421 1419 1417
1472 1470 1470 1469 1465 1463 1463 1462 1462 1461 1460 1458 1457 1455 1453 1451 1449 1447 1445 1443 1442 1440 1439 1437 1436 1435 1434 1433 1432 1432 1431 1430 1429 1427 1426 1425 1424 1423 1422 1420 1419 1418 1416 1414
1469 1470 1469 1468 1464 1462 1460 1460 1460 1458 1457 1455 1454 1452 1451 1449 1447 1445 1443 1441 1439 1437 1436 1435 1434 1432 1432 1431 1430 1429 1428 1427 1426 1425 1423 1422 1421 1420 1419 1417 1416 1415 1414 1413
1467 1468 1468 1464 1462 1461 1458 1457 1457 1455 1454 1452 1450 1448 1447 1446 1444 1442 1440 1438 1437 1435 1433 1432 1431 1430 1429 1428 1427 1427 1426 1425 1423 1422 1420 1419 1418 1417 1416 1414 1413 1412 1411 1409